ZKAAY NZAR-NZAR

Flight info

Callsign ZKAAY
Flight time N/A
Altitude 3000
Route ARCHZ1 MLF DCT BLIPP Q70 LAS J100 LAX/N0502F320 DCT FICKY B200 BENTS/N0507F340 B200 MEGOG/N0501F360 B200 TATAS/N0493F380 Q912 OKTUB
Aircraft DA62/L-SGB/LB1D1

Departure

Time 2026-04-27 03:08
Airport Ardmore Airport (NZAR)

Arrival

Time N/A
Airport Ardmore Airport (NZAR)
Time Latitude Longitude Altitude Speed Heading
2026-04-27 03:03 -37.03098 174.97786 113 ft 0 kts 317°
2026-04-27 03:05 -37.03111 174.97778 114 ft 8 kts 211°
2026-04-27 03:06 -37.03111 174.97734 113 ft 2 kts 314°
2026-04-27 03:06 -37.03093 174.97713 113 ft 11 kts 315°
2026-04-27 03:06 -37.03031 174.97641 118 ft 13 kts 336°
2026-04-27 03:06 -37.02986 174.97674 118 ft 17 kts 49°
2026-04-27 03:07 -37.02895 174.97784 115 ft 20 kts 40°
2026-04-27 03:07 -37.02830 174.97864 116 ft 5 kts
2026-04-27 03:07 -37.02914 174.97686 117 ft 57 kts 225°
2026-04-27 03:07 -37.03300 174.97187 116 ft 99 kts 225°
2026-04-27 03:08 -37.03988 174.96242 312 ft 121 kts 229°
2026-04-27 03:08 -37.04345 174.95688 493 ft 127 kts 231°
2026-04-27 03:08 -37.04851 174.94790 856 ft 124 kts 234°
2026-04-27 03:08 -37.05365 174.93837 1009 ft 139 kts 231°
2026-04-27 03:09 -37.05941 174.92850 1224 ft 143 kts 230°
2026-04-27 03:09 -37.06628 174.91816 1105 ft 161 kts 227°
2026-04-27 03:09 -37.07477 174.90894 1059 ft 166 kts 207°
2026-04-27 03:09 -37.08621 174.90555 966 ft 174 kts 183°
2026-04-27 03:10 -37.09838 174.90665 877 ft 177 kts 175°
2026-04-27 03:10 -37.11047 174.90853 863 ft 173 kts 176°
2026-04-27 03:10 -37.12221 174.91047 967 ft 167 kts 176°
2026-04-27 03:10 -37.13360 174.91195 1087 ft 162 kts 177°
2026-04-27 03:11 -37.14458 174.91317 1243 ft 157 kts 175°
2026-04-27 03:11 -37.15526 174.91461 1398 ft 154 kts 175°
2026-04-27 03:11 -37.16611 174.91630 1409 ft 161 kts 175°
2026-04-27 03:11 -37.17754 174.91749 1395 ft 166 kts 179°
2026-04-27 03:12 -37.18896 174.91822 1506 ft 163 kts 177°
2026-04-27 03:12 -37.20015 174.91977 1739 ft 155 kts 173°
2026-04-27 03:12 -37.21040 174.92179 2110 ft 146 kts 172°
2026-04-27 03:12 -37.22049 174.92413 2398 ft 147 kts 171°
2026-04-27 03:13 -37.23040 174.92724 2596 ft 153 kts 166°
2026-04-27 03:13 -37.24120 174.93165 2505 ft 169 kts 162°
2026-04-27 03:13 -37.25248 174.93712 2362 ft 178 kts 161°
2026-04-27 03:13 -37.26418 174.94281 2210 ft 182 kts 160°
2026-04-27 03:14 -37.27585 174.94892 2129 ft 182 kts 158°
2026-04-27 03:14 -37.28712 174.95533 2299 ft 172 kts 158°
2026-04-27 03:14 -37.29788 174.96137 2446 ft 169 kts 157°
2026-04-27 03:14 -37.30597 174.97179 2600 ft 170 kts 122°
2026-04-27 03:15 -37.31131 174.98477 2774 ft 169 kts 121°
2026-04-27 03:15 -37.31670 174.99782 2944 ft 167 kts 120°
2026-04-27 03:15 -37.32205 175.01066 3126 ft 166 kts 120°
2026-04-27 03:15 -37.32586 175.02461 3159 ft 177 kts 94°
2026-04-27 03:16 -37.32393 175.04030 3162 ft 185 kts 76°
2026-04-27 03:16 -37.31975 175.05575 3167 ft 187 kts 73°
2026-04-27 03:16 -37.31540 175.07106 3166 ft 186 kts 72°
2026-04-27 03:16 -37.31108 175.08645 3168 ft 187 kts 72°
2026-04-27 03:17 -37.30679 175.10169 3174 ft 188 kts 72°
2026-04-27 03:17 -37.30242 175.11715 3167 ft 188 kts 72°
2026-04-27 03:17 -37.29803 175.13258 3166 ft 187 kts 72°
2026-04-27 03:17 -37.29366 175.14796 3166 ft 187 kts 72°
2026-04-27 03:18 -37.28933 175.16336 3167 ft 187 kts 72°
2026-04-27 03:18 -37.28500 175.17879 3169 ft 188 kts 72°
2026-04-27 03:18 -37.28062 175.19430 3167 ft 189 kts 72°
2026-04-27 03:18 -37.27630 175.20969 3164 ft 188 kts 72°
2026-04-27 03:19 -37.27192 175.22523 3171 ft 189 kts 72°
2026-04-27 03:19 -37.26753 175.24084 3171 ft 190 kts 72°
2026-04-27 03:19 -37.26322 175.25651 3165 ft 189 kts 73°
2026-04-27 03:19 -37.25920 175.27213 3169 ft 187 kts 76°
2026-04-27 03:20 -37.25572 175.28793 3171 ft 189 kts 76°
2026-04-27 03:20 -37.25223 175.30387 3169 ft 190 kts 77°
2026-04-27 03:20 -37.24865 175.31985 3164 ft 190 kts 76°
2026-04-27 03:20 -37.24518 175.33559 3164 ft 189 kts 76°
2026-04-27 03:21 -37.24168 175.35153 3164 ft 189 kts 76°
2026-04-27 03:21 -37.23821 175.36741 3164 ft 188 kts 76°
2026-04-27 03:21 -37.23476 175.38327 3164 ft 188 kts 76°
2026-04-27 03:21 -37.23129 175.39910 3165 ft 188 kts 77°
2026-04-27 03:22 -37.22781 175.41492 3168 ft 188 kts 76°
2026-04-27 03:22 -37.22434 175.43085 3171 ft 189 kts 76°
2026-04-27 03:22 -37.22131 175.44487 3172 ft 190 kts 76°
2026-04-27 03:22 -37.21783 175.46077 3170 ft 189 kts 76°
2026-04-27 03:23 -37.21435 175.47668 3099 ft 191 kts 76°
2026-04-27 03:23 -37.21099 175.49234 2959 ft 174 kts 76°
2026-04-27 03:23 -37.20754 175.50569 2509 ft 156 kts 69°
2026-04-27 03:23 -37.20273 175.51665 2103 ft 134 kts 56°
2026-04-27 03:24 -37.19737 175.52565 1717 ft 124 kts 55°
2026-04-27 03:24 -37.19245 175.53409 1371 ft 109 kts 56°
2026-04-27 03:24 -37.18817 175.54178 1019 ft 102 kts 60°
2026-04-27 03:24 -37.18486 175.54901 797 ft 90 kts 62°
2026-04-27 03:25 -37.18153 175.55473 543 ft 76 kts 37°
2026-04-27 03:25 -37.17617 175.55552 295 ft 83 kts 342°
2026-04-27 03:25 -37.17033 175.55302 105 ft 92 kts 340°
2026-04-27 03:25 -37.16454 175.55021 27 ft 84 kts 338°
2026-04-27 03:26 -37.15878 175.54728 57 ft 103 kts 339°
2026-04-27 03:26 -37.15167 175.54405 155 ft 105 kts 343°
2026-04-27 03:26 -37.14477 175.54164 357 ft 101 kts 347°
2026-04-27 03:26 -37.13798 175.53995 539 ft 101 kts 350°
2026-04-27 03:27 -37.13097 175.53810 934 ft 107 kts 346°
2026-04-27 03:27 -37.12464 175.53370 1127 ft 97 kts 308°
2026-04-27 03:27 -37.12125 175.52681 1086 ft 90 kts 301°
2026-04-27 03:27 -37.12027 175.51939 1113 ft 83 kts 249°
2026-04-27 03:28 -37.12505 175.51282 1127 ft 120 kts 206°
2026-04-27 03:28 -37.13394 175.51150 1253 ft 138 kts 169°
2026-04-27 03:28 -37.14352 175.51558 1322 ft 153 kts 156°
2026-04-27 03:28 -37.15354 175.52138 1353 ft 163 kts 154°
2026-04-27 03:29 -37.16379 175.52784 1464 ft 164 kts 152°
2026-04-27 03:29 -37.17385 175.53461 1606 ft 164 kts 151°
2026-04-27 03:29 -37.18451 175.54002 1659 ft 169 kts 160°
2026-04-27 03:29 -37.19559 175.54508 1723 ft 163 kts 159°
2026-04-27 03:30 -37.20477 175.55034 1604 ft 127 kts 135°
2026-04-27 03:30 -37.20672 175.55921 1437 ft 104 kts 68°
2026-04-27 03:30 -37.20207 175.56586 1159 ft 103 kts 30°
2026-04-27 03:30 -37.19505 175.56508 878 ft 108 kts 335°
2026-04-27 03:31 -37.18809 175.56104 634 ft 110 kts 337°
2026-04-27 03:31 -37.18107 175.55764 414 ft 105 kts 341°
2026-04-27 03:31 -37.17436 175.55470 244 ft 99 kts 342°
2026-04-27 03:31 -37.16789 175.55193 92 ft 96 kts 339°
2026-04-27 03:32 -37.16191 175.54901 26 ft 86 kts 340°
2026-04-27 03:32 -37.15631 175.54631 53 ft 92 kts 340°
2026-04-27 03:32 -37.14955 175.54310 168 ft 118 kts 340°
2026-04-27 03:32 -37.14150 175.53869 416 ft 131 kts 323°
2026-04-27 03:33 -37.13626 175.52932 695 ft 137 kts 289°
2026-04-27 03:33 -37.13552 175.51767 1013 ft 137 kts 258°
2026-04-27 03:33 -37.13970 175.50737 1362 ft 135 kts 218°
2026-04-27 03:33 -37.14884 175.50495 1474 ft 148 kts 162°
2026-04-27 03:34 -37.15786 175.51234 1482 ft 161 kts 140°
2026-04-27 03:34 -37.16637 175.52181 1556 ft 165 kts 137°
2026-04-27 03:34 -37.17480 175.53207 1541 ft 172 kts 135°
2026-04-27 03:34 -37.18359 175.54252 1533 ft 175 kts 140°
2026-04-27 03:35 -37.19299 175.55169 1708 ft 171 kts 143°
2026-04-27 03:35 -37.20275 175.56064 1632 ft 179 kts 143°
2026-04-27 03:35 -37.21157 175.57125 1705 ft 173 kts 121°
2026-04-27 03:35 -37.21481 175.58579 1701 ft 179 kts 91°
2026-04-27 03:36 -37.21193 175.60098 1697 ft 182 kts 64°
2026-04-27 03:36 -37.20347 175.61259 1661 ft 185 kts 30°
2026-04-27 03:36 -37.19083 175.61336 1496 ft 193 kts 341°
2026-04-27 03:36 -37.17890 175.60603 1474 ft 188 kts 332°
2026-04-27 03:37 -37.16782 175.59789 1591 ft 181 kts 329°
2026-04-27 03:37 -37.15703 175.58955 1614 ft 183 kts 328°
2026-04-27 03:37 -37.14618 175.58128 1682 ft 181 kts 329°
2026-04-27 03:37 -37.13546 175.57360 1864 ft 175 kts 332°
2026-04-27 03:38 -37.12503 175.56579 1968 ft 174 kts 322°
2026-04-27 03:38 -37.11929 175.55303 1965 ft 179 kts 267°
2026-04-27 03:38 -37.12307 175.53840 1897 ft 184 kts 243°
2026-04-27 03:38 -37.12950 175.52424 1754 ft 189 kts 237°
2026-04-27 03:39 -37.13591 175.51040 1860 ft 179 kts 234°
2026-04-27 03:39 -37.14539 175.50254 1739 ft 154 kts 184°
2026-04-27 03:39 -37.15497 175.50531 1487 ft 131 kts 156°
2026-04-27 03:39 -37.16224 175.50964 1253 ft 104 kts 151°
2026-04-27 03:40 -37.16764 175.51481 1031 ft 97 kts 120°
2026-04-27 03:40 -37.16854 175.52300 741 ft 101 kts 76°
2026-04-27 03:40 -37.16599 175.53134 408 ft 101 kts 67°
2026-04-27 03:40 -37.16350 175.53946 149 ft 97 kts 75°
2026-04-27 03:41 -37.16135 175.54677 23 ft 80 kts 68°
2026-04-27 03:41 -37.15939 175.55261 57 ft 81 kts 69°
2026-04-27 03:41 -37.15690 175.55965 390 ft 87 kts 65°
2026-04-27 03:41 -37.15413 175.56597 836 ft 86 kts 60°
2026-04-27 03:42 -37.15075 175.57300 1115 ft 106 kts 59°
2026-04-27 03:42 -37.14513 175.57934 1481 ft 116 kts 26°
2026-04-27 03:42 -37.13756 175.58263 1908 ft 120 kts 19°
2026-04-27 03:42 -37.12928 175.58554 2238 ft 129 kts 16°
2026-04-27 03:43 -37.12039 175.58839 2624 ft 131 kts 17°
2026-04-27 03:43 -37.11179 175.59185 3088 ft 130 kts 22°
2026-04-27 03:43 -37.10337 175.59658 3449 ft 135 kts 29°
2026-04-27 03:43 -37.09555 175.60262 3863 ft 133 kts 38°
2026-04-27 03:44 -37.08835 175.61022 4302 ft 134 kts 47°
2026-04-27 03:44 -37.08188 175.61931 4488 ft 151 kts 50°
2026-04-27 03:44 -37.07450 175.62958 4515 ft 168 kts 49°
2026-04-27 03:44 -37.06661 175.64025 4814 ft 165 kts 49°
2026-04-27 03:45 -37.05815 175.65171 4505 ft 191 kts 50°
2026-04-27 03:45 -37.05192 175.66596 4514 ft 187 kts 83°
2026-04-27 03:45 -37.05443 175.68144 4528 ft 183 kts 124°
2026-04-27 03:45 -37.06269 175.69289 4712 ft 173 kts 135°
2026-04-27 03:46 -37.07119 175.70336 4892 ft 170 kts 136°
2026-04-27 03:46 -37.07966 175.71358 5068 ft 168 kts 136°
2026-04-27 03:46 -37.08816 175.72386 5160 ft 173 kts 136°